Time,TemperatureF,DewpointF,PressureIn,WindDirection,WindDirectionDegrees,WindSpeedMPH,WindSpeedGustMPH,Humidity,HourlyPrecipIn,Conditions,Clouds,dailyrainin,SoftwareType,DateUTC
2013-02-15 10:19:00,74.7,23.9,30.24,East,87,7.0,7.0,15,0.00,,,0.00,Wunderground v.1.15,2013-02-15 18:19:00,
2013-02-15 10:24:00,74.7,23.9,30.24,ENE,68,8.0,16.0,15,0.00,,,0.00,Wunderground v.1.15,2013-02-15 18:24:00,
2013-02-15 10:29:00,74.9,24.1,30.24,ENE,78,8.0,8.0,15,0.00,,,0.00,Wunderground v.1.15,2013-02-15 18:29:00,
2013-02-15 10:34:00,75.1,24.3,30.24,ENE,68,7.0,8.0,15,0.00,,,0.00,Wunderground v.1.15,2013-02-15 18:34:00,
2013-02-15 10:40:00,75.2,24.3,30.24,East,91,6.0,17.0,15,0.00,,,0.00,Wunderground v.1.15,2013-02-15 18:40:00,
2013-02-15 10:45:00,75.1,22.6,30.24,East,88,8.0,17.0,14,0.00,,,0.00,Wunderground v.1.15,2013-02-15 18:45:00,
2013-02-15 10:54:00,75.6,24.7,30.24,East,99,7.0,9.0,15,0.00,,,0.00,Wunderground v.1.15,2013-02-15 18:54:00,
2013-02-15 10:59:00,76.0,23.3,30.24,ENE,68,7.0,9.0,14,0.00,,,0.00,Wunderground v.1.15,2013-02-15 18:59:00,
2013-02-15 11:09:00,76.1,23.4,30.24,ENE,68,7.0,10.0,14,0.00,,,0.00,Wunderground v.1.15,2013-02-15 19:09:00,
2013-02-15 11:15:00,76.5,23.7,30.23,East,82,7.0,10.0,14,0.00,,,0.00,Wunderground v.1.15,2013-02-15 19:15:00,
2013-02-15 11:20:00,76.6,23.8,30.23,ENE,77,7.0,7.0,14,0.00,,,0.00,Wunderground v.1.15,2013-02-15 19:20:00,
2013-02-15 11:29:00,77.1,22.4,30.23,NE,42,7.0,8.0,13,0.00,,,0.00,Wunderground v.1.15,2013-02-15 19:29:00,
2013-02-15 11:34:00,77.4,24.4,30.23,NE,52,7.0,10.0,14,0.00,,,0.00,Wunderground v.1.15,2013-02-15 19:34:00,
2013-02-15 11:39:00,77.1,24.2,30.23,East,86,7.0,7.0,14,0.00,,,0.00,Wunderground v.1.15,2013-02-15 19:39:00,
2013-02-15 11:45:00,77.6,26.3,30.23,East,89,6.0,7.0,15,0.00,,,0.00,Wunderground v.1.15,2013-02-15 19:45:00,
2013-02-15 11:50:00,77.7,26.3,30.23,ESE,102,6.0,6.0,15,0.00,,,0.00,Wunderground v.1.15,2013-02-15 19:50:00,
2013-02-15 11:55:00,77.9,26.5,30.23,ENE,77,6.0,15.0,15,0.00,,,0.00,Wunderground v.1.15,2013-02-15 19:55:00,
2013-02-15 12:00:00,78.0,24.9,30.22,East,85,5.0,15.0,14,0.00,,,0.00,Wunderground v.1.15,2013-02-15 20:00:00,
2013-02-15 12:05:00,78.2,26.7,30.22,ENE,72,5.0,15.0,15,0.00,,,0.00,Wunderground v.1.15,2013-02-15 20:05:00,
2013-02-15 12:10:00,78.5,27.0,30.22,East,94,5.0,15.0,15,0.00,,,0.00,Wunderground v.1.15,2013-02-15 20:10:00,
2013-02-15 12:19:00,78.5,25.3,30.22,ESE,106,6.0,6.0,14,0.00,,,0.00,Wunderground v.1.15,2013-02-15 20:19:00,
2013-02-15 12:24:00,78.7,25.5,30.22,East,85,6.0,9.0,14,0.00,,,0.00,Wunderground v.1.15,2013-02-15 20:24:00,
2013-02-15 12:29:00,78.8,25.5,30.22,ESE,114,5.0,5.0,14,0.00,,,0.00,Wunderground v.1.15,2013-02-15 20:29:00,
2013-02-15 12:34:00,79.0,25.7,30.21,ENE,58,6.0,6.0,14,0.00,,,0.00,Wunderground v.1.15,2013-02-15 20:34:00,
2013-02-15 12:39:00,79.0,27.4,30.21,ESE,108,5.0,15.0,15,0.00,,,0.00,Wunderground v.1.15,2013-02-15 20:39:00,
2013-02-15 12:44:00,78.8,27.2,30.20,East,85,6.0,15.0,15,0.00,,,0.00,Wunderground v.1.15,2013-02-15 20:44:00,
2013-02-15 12:54:00,78.5,25.3,30.21,ENE,58,6.0,15.0,14,0.00,,,0.00,Wunderground v.1.15,2013-02-15 20:54:00,
2013-02-15 12:59:00,78.5,25.3,30.20,East,101,6.0,15.0,14,0.00,,,0.00,Wunderground v.1.15,2013-02-15 20:59:00,
2013-02-15 13:04:00,78.5,25.3,30.20,East,96,6.0,15.0,14,0.00,,,0.00,Wunderground v.1.15,2013-02-15 21:04:00,
2013-02-15 13:09:00,78.6,27.1,30.20,East,79,5.0,15.0,15,0.00,,,0.00,Wunderground v.1.15,2013-02-15 21:09:00,
2013-02-15 13:14:00,78.6,25.4,30.20,SE,128,4.0,15.0,14,0.00,,,0.00,Wunderground v.1.15,2013-02-15 21:14:00,
2013-02-15 13:24:00,78.5,25.3,30.20,East,101,5.0,15.0,14,0.00,,,0.00,Wunderground v.1.15,2013-02-15 21:24:00,
2013-02-15 13:29:00,78.7,23.7,30.19,East,82,5.0,15.0,13,0.00,,,0.00,Wunderground v.1.15,2013-02-15 21:29:00,
2013-02-15 13:34:00,78.6,25.4,30.19,ESE,104,5.0,15.0,14,0.00,,,0.00,Wunderground v.1.15,2013-02-15 21:34:00,
2013-02-15 13:39:00,78.5,23.5,30.19,NE,39,5.0,5.0,13,0.00,,,0.00,Wunderground v.1.15,2013-02-15 21:39:00,
2013-02-15 13:44:00,78.4,25.2,30.19,ENE,67,4.0,6.0,14,0.00,,,0.00,Wunderground v.1.15,2013-02-15 21:44:00,
2013-02-15 13:49:00,78.3,25.1,30.19,East,84,4.0,4.0,14,0.00,,,0.00,Wunderground v.1.15,2013-02-15 21:49:00,
2013-02-15 13:59:00,79.1,24.0,30.19,East,79,3.0,15.0,13,0.00,,,0.00,Wunderground v.1.15,2013-02-15 21:59:00,
2013-02-15 14:04:00,79.1,24.0,30.19,NE,54,5.0,15.0,13,0.00,,,0.00,Wunderground v.1.15,2013-02-15 22:04:00,
2013-02-15 14:09:00,79.0,23.9,30.19,SE,129,7.0,7.0,13,0.00,,,0.00,Wunderground v.1.15,2013-02-15 22:09:00,
2013-02-15 14:14:00,79.3,25.9,30.19,NNE,18,6.0,7.0,14,0.00,,,0.00,Wunderground v.1.15,2013-02-15 22:14:00,
2013-02-15 14:19:00,79.6,24.4,30.19,East,88,5.0,5.0,13,0.00,,,0.00,Wunderground v.1.15,2013-02-15 22:19:00,
2013-02-15 14:29:00,80.2,24.9,30.19,NNE,33,5.0,5.0,13,0.00,,,0.00,Wunderground v.1.15,2013-02-15 22:29:00,
2013-02-15 14:34:00,80.0,22.8,30.18,ESE,120,5.0,5.0,12,0.00,,,0.00,Wunderground v.1.15,2013-02-15 22:34:00,
2013-02-15 14:39:00,79.9,24.6,30.18,NE,36,5.0,5.0,13,0.00,,,0.00,Wunderground v.1.15,2013-02-15 22:39:00,
2013-02-15 14:44:00,79.4,24.2,30.18,SE,131,5.0,5.0,13,0.00,,,0.00,Wunderground v.1.15,2013-02-15 22:44:00,
2013-02-15 14:49:00,79.6,26.2,30.18,ESE,123,4.0,4.0,14,0.00,,,0.00,Wunderground v.1.15,2013-02-15 22:49:00,
2013-02-15 14:54:00,79.7,22.6,30.18,ENE,61,4.0,6.0,12,0.00,,,0.00,Wunderground v.1.15,2013-02-15 22:54:00,
2013-02-15 15:00:00,79.6,22.5,30.18,ESE,110,5.0,5.0,12,0.00,,,0.00,Wunderground v.1.15,2013-02-15 23:00:00,
2013-02-15 15:05:00,79.5,22.4,30.18,ESE,105,5.0,6.0,12,0.00,,,0.00,Wunderground v.1.15,2013-02-15 23:05:00,
2013-02-15 15:10:00,79.5,22.4,30.18,East,79,5.0,13.0,12,0.00,,,0.00,Wunderground v.1.15,2013-02-15 23:10:00,
2013-02-15 15:15:00,79.6,22.5,30.18,ENE,64,5.0,13.0,12,0.00,,,0.00,Wunderground v.1.15,2013-02-15 23:15:00,
2013-02-15 15:20:00,79.3,22.2,30.19,ENE,65,6.0,13.0,12,0.00,,,0.00,Wunderground v.1.15,2013-02-15 23:20:00,
2013-02-15 15:25:00,79.3,20.2,30.19,ESE,110,6.0,13.0,11,0.00,,,0.00,Wunderground v.1.15,2013-02-15 23:25:00,
2013-02-15 15:34:00,79.4,22.3,30.19,NE,53,4.0,13.0,12,0.00,,,0.00,Wunderground v.1.15,2013-02-15 23:34:00,
2013-02-15 15:39:00,79.3,22.2,30.19,North,1,4.0,13.0,12,0.00,,,0.00,Wunderground v.1.15,2013-02-15 23:39:00,
2013-02-15 15:44:00,79.2,22.2,30.18,ENE,58,4.0,13.0,12,0.00,,,0.00,Wunderground v.1.15,2013-02-15 23:44:00,
2013-02-15 15:49:00,79.1,20.0,30.19,NE,56,5.0,7.0,11,0.00,,,0.00,Wunderground v.1.15,2013-02-15 23:49:00,
2013-02-15 15:54:00,79.0,20.0,30.19,East,87,5.0,7.0,11,0.00,,,0.00,Wunderground v.1.15,2013-02-15 23:54:00,
2013-02-15 16:04:00,78.8,17.6,30.18,ESE,116,5.0,11.0,10,0.00,,,0.00,Wunderground v.1.15,2013-02-16 00:04:00,
2013-02-15 16:09:00,78.6,17.4,30.19,East,101,5.0,5.0,10,0.00,,,0.00,Wunderground v.1.15,2013-02-16 00:09:00,
2013-02-15 16:14:00,78.4,19.5,30.19,East,89,4.0,5.0,11,0.00,,,0.00,Wunderground v.1.15,2013-02-16 00:14:00,
2013-02-15 16:19:00,78.1,19.3,30.19,ENE,61,3.0,6.0,11,0.00,,,0.00,Wunderground v.1.15,2013-02-16 00:19:00,
2013-02-15 16:24:00,77.9,21.2,30.19,East,84,4.0,6.0,12,0.00,,,0.00,Wunderground v.1.15,2013-02-16 00:24:00,
2013-02-15 16:29:00,77.7,21.0,30.19,ESE,104,4.0,4.0,12,0.00,,,0.00,Wunderground v.1.15,2013-02-16 00:29:00,
2013-02-15 16:39:00,77.2,20.6,30.19,ENE,67,3.0,10.0,12,0.00,,,0.00,Wunderground v.1.15,2013-02-16 00:39:00,
2013-02-15 16:44:00,77.0,22.4,30.20,ESE,113,3.0,10.0,13,0.00,,,0.00,Wunderground v.1.15,2013-02-16 00:44:00,
2013-02-15 16:49:00,76.7,22.1,30.20,ENE,74,3.0,3.0,13,0.00,,,0.00,Wunderground v.1.15,2013-02-16 00:49:00,
2013-02-15 16:54:00,76.6,20.1,30.20,ESE,110,2.0,10.0,12,0.00,,,0.00,Wunderground v.1.15,2013-02-16 00:54:00,
2013-02-15 16:59:00,76.6,20.1,30.20,ESE,113,3.0,10.0,12,0.00,,,0.00,Wunderground v.1.15,2013-02-16 00:59:00,
2013-02-15 17:09:00,76.0,21.6,30.20,ESE,117,2.0,2.0,13,0.00,,,0.00,Wunderground v.1.15,2013-02-16 01:09:00,
2013-02-15 17:14:00,75.5,22.9,30.20,ESE,110,1.0,10.0,14,0.00,,,0.00,Wunderground v.1.15,2013-02-16 01:14:00,
2013-02-15 17:19:00,75.1,20.9,30.20,ENE,75,1.0,1.0,13,0.00,,,0.00,Wunderground v.1.15,2013-02-16 01:19:00,
2013-02-15 17:24:00,74.4,23.7,30.20,ESE,108,1.0,2.0,15,0.00,,,0.00,Wunderground v.1.15,2013-02-16 01:24:00,
2013-02-15 17:29:00,73.7,24.7,30.20,East,99,1.0,10.0,16,0.00,,,0.00,Wunderground v.1.15,2013-02-16 01:29:00,
2013-02-15 17:34:00,73.5,23.0,30.21,East,82,1.0,10.0,15,0.00,,,0.00,Wunderground v.1.15,2013-02-16 01:34:00,
2013-02-15 17:44:00,73.4,22.9,30.21,ENE,77,1.0,10.0,15,0.00,,,0.00,Wunderground v.1.15,2013-02-16 01:44:00,
2013-02-15 17:49:00,73.4,22.9,30.21,ESE,113,1.0,1.0,15,0.00,,,0.00,Wunderground v.1.15,2013-02-16 01:49:00,
2013-02-15 17:54:00,73.3,21.2,30.21,NE,50,1.0,10.0,14,0.00,,,0.00,Wunderground v.1.15,2013-02-16 01:54:00,
2013-02-15 17:59:00,73.3,21.2,30.21,East,94,1.0,10.0,14,0.00,,,0.00,Wunderground v.1.15,2013-02-16 01:59:00,
2013-02-15 18:04:00,73.3,21.2,30.21,ENE,67,1.0,10.0,14,0.00,,,0.00,Wunderground v.1.15,2013-02-16 02:04:00,
2013-02-15 18:14:00,73.2,21.1,30.21,NE,38,2.0,10.0,14,0.00,,,0.00,Wunderground v.1.15,2013-02-16 02:14:00,
2013-02-15 18:19:00,73.3,21.2,30.22,East,86,2.0,10.0,14,0.00,,,0.00,Wunderground v.1.15,2013-02-16 02:19:00,
2013-02-15 18:24:00,73.4,21.3,30.22,ENE,65,3.0,10.0,14,0.00,,,0.00,Wunderground v.1.15,2013-02-16 02:24:00,
2013-02-15 18:29:00,73.3,21.2,30.22,East,82,3.0,10.0,14,0.00,,,0.00,Wunderground v.1.15,2013-02-16 02:29:00,
2013-02-15 18:34:00,73.2,21.1,30.22,ESE,108,3.0,10.0,14,0.00,,,0.00,Wunderground v.1.15,2013-02-16 02:34:00,
2013-02-15 18:39:00,73.1,19.3,30.22,ENE,68,3.0,10.0,13,0.00,,,0.00,Wunderground v.1.15,2013-02-16 02:39:00,
2013-02-15 18:49:00,73.3,19.4,30.22,SE,126,4.0,4.0,13,0.00,,,0.00,Wunderground v.1.15,2013-02-16 02:49:00,
2013-02-15 18:54:00,73.3,17.6,30.22,ENE,64,4.0,10.0,12,0.00,,,0.00,Wunderground v.1.15,2013-02-16 02:54:00,
2013-02-15 18:59:00,73.4,17.6,30.22,East,96,4.0,10.0,12,0.00,,,0.00,Wunderground v.1.15,2013-02-16 02:59:00,
2013-02-15 19:04:00,73.2,17.5,30.22,East,80,4.0,10.0,12,0.00,,,0.00,Wunderground v.1.15,2013-02-16 03:04:00,
2013-02-15 19:09:00,72.9,17.3,30.23,East,85,3.0,3.0,12,0.00,,,0.00,Wunderground v.1.15,2013-02-16 03:09:00,
2013-02-15 19:14:00,72.7,17.1,30.23,ESE,120,3.0,10.0,12,0.00,,,0.00,Wunderground v.1.15,2013-02-16 03:14:00,
2013-02-15 19:19:00,72.6,17.0,30.23,East,83,3.0,10.0,12,0.00,,,0.00,Wunderground v.1.15,2013-02-16 03:19:00,
2013-02-15 19:24:00,72.7,17.1,30.23,ESE,104,3.0,10.0,12,0.00,,,0.00,Wunderground v.1.15,2013-02-16 03:24:00,
2013-02-15 19:29:00,72.6,17.0,30.23,NE,38,3.0,3.0,12,0.00,,,0.00,Wunderground v.1.15,2013-02-16 03:29:00,
2013-02-15 19:34:00,72.4,16.9,30.23,NE,56,2.0,10.0,12,0.00,,,0.00,Wunderground v.1.15,2013-02-16 03:34:00,
2013-02-15 19:39:00,72.1,18.5,30.23,ESE,106,2.0,2.0,13,0.00,,,0.00,Wunderground v.1.15,2013-02-16 03:39:00,
2013-02-15 19:49:00,71.7,16.3,30.23,NE,47,3.0,10.0,12,0.00,,,0.00,Wunderground v.1.15,2013-02-16 03:49:00,
2013-02-15 19:54:00,72.0,16.6,30.23,ESE,105,3.0,10.0,12,0.00,,,0.00,Wunderground v.1.15,2013-02-16 03:54:00,
2013-02-15 19:59:00,72.0,16.6,30.23,ENE,67,3.0,10.0,12,0.00,,,0.00,Wunderground v.1.15,2013-02-16 03:59:00,
2013-02-15 20:04:00,72.1,18.5,30.24,East,95,3.0,10.0,13,0.00,,,0.00,Wunderground v.1.15,2013-02-16 04:04:00,
2013-02-15 20:09:00,72.1,16.6,30.24,ESE,102,3.0,10.0,12,0.00,,,0.00,Wunderground v.1.15,2013-02-16 04:09:00,
2013-02-15 20:14:00,72.3,18.7,30.24,ESE,122,3.0,10.0,13,0.00,,,0.00,Wunderground v.1.15,2013-02-16 04:14:00,
2013-02-15 20:24:00,72.3,16.8,30.23,ESE,120,4.0,10.0,12,0.00,,,0.00,Wunderground v.1.15,2013-02-16 04:24:00,
2013-02-15 20:29:00,72.2,16.7,30.24,ENE,58,5.0,5.0,12,0.00,,,0.00,Wunderground v.1.15,2013-02-16 04:29:00,
2013-02-15 20:34:00,71.9,18.3,30.24,East,98,5.0,10.0,13,0.00,,,0.00,Wunderground v.1.15,2013-02-16 04:34:00,
2013-02-15 20:39:00,71.4,17.9,30.24,NE,48,4.0,4.0,13,0.00,,,0.00,Wunderground v.1.15,2013-02-16 04:39:00,
2013-02-15 20:44:00,71.0,19.4,30.24,East,98,4.0,10.0,14,0.00,,,0.00,Wunderground v.1.15,2013-02-16 04:44:00,
2013-02-15 20:54:00,70.1,18.6,30.24,ESE,117,3.0,10.0,14,0.00,,,0.00,Wunderground v.1.15,2013-02-16 04:54:00,
2013-02-15 20:59:00,69.8,18.4,30.24,ESE,110,3.0,10.0,14,0.00,,,0.00,Wunderground v.1.15,2013-02-16 04:59:00,
2013-02-15 21:04:00,69.7,19.9,30.24,ESE,108,4.0,10.0,15,0.00,,,0.00,Wunderground v.1.15,2013-02-16 05:04:00,
2013-02-15 21:09:00,69.8,18.4,30.24,ESE,103,4.0,4.0,14,0.00,,,0.00,Wunderground v.1.15,2013-02-16 05:09:00,
2013-02-15 21:14:00,70.0,18.6,30.24,East,91,4.0,6.0,14,0.00,,,0.00,Wunderground v.1.15,2013-02-16 05:14:00,
2013-02-15 21:19:00,70.1,18.6,30.24,East,79,4.0,4.0,14,0.00,,,0.00,Wunderground v.1.15,2013-02-16 05:19:00,